Time,TemperatureF,DewpointF,PressureIn,WindDirection,WindDirectionDegrees,WindSpeedMPH,WindSpeedGustMPH,Humidity,HourlyPrecipIn,Conditions,Clouds,dailyrainin,SoftwareType,DateUTC
2013-02-19 00:04:00,8.8,3.0,28.92,NNW,338,13.8,13.8,77,0.00,CLR,,0.00,WeatherDisplay:10.37,2013-02-19 06:04:00,
2013-02-19 00:09:00,8.8,3.0,28.92,NW,315,13.8,13.8,77,0.00,CLR,,0.00,WeatherDisplay:10.37,2013-02-19 06:09:00,
2013-02-19 00:14:00,8.8,3.3,28.92,NW,315,12.7,12.7,78,0.00,CLR,,0.00,WeatherDisplay:10.37,2013-02-19 06:14:00,
2013-02-19 00:19:00,8.8,3.3,28.92,NW,315,10.4,10.4,78,0.00,CLR,,0.00,WeatherDisplay:10.37,2013-02-19 06:19:00,
2013-02-19 00:25:00,9.0,3.8,28.92,NW,315,10.4,10.4,79,0.00,CLR,,0.00,WeatherDisplay:10.37,2013-02-19 06:25:00,
2013-02-19 00:30:00,9.1,3.9,28.92,NW,315,10.4,10.4,79,0.00,CLR,,0.00,WeatherDisplay:10.37,2013-02-19 06:30:00,
2013-02-19 00:35:00,9.1,3.9,28.92,NW,315,10.4,10.4,79,0.00,CLR,,0.00,WeatherDisplay:10.37,2013-02-19 06:35:00,
2013-02-19 00:40:00,9.1,3.9,28.93,NW,315,9.2,9.2,79,0.00,CLR,,0.00,WeatherDisplay:10.37,2013-02-19 06:40:00,
2013-02-19 00:45:00,9.1,3.9,28.93,WNW,292,10.4,10.4,79,0.00,CLR,,0.00,WeatherDisplay:10.37,2013-02-19 06:45:00,
2013-02-19 00:50:00,9.1,3.9,28.94,NNW,338,11.5,11.5,79,0.00,CLR,,0.00,WeatherDisplay:10.37,2013-02-19 06:50:00,
2013-02-19 00:56:00,9.3,4.4,28.93,NW,315,12.7,12.7,80,0.00,CLR,,0.00,WeatherDisplay:10.37,2013-02-19 06:56:00,
2013-02-19 01:01:00,9.5,4.3,28.93,North,0,10.4,10.4,79,0.00,CLR,,0.00,WeatherDisplay:10.37,2013-02-19 07:01:00,
2013-02-19 01:06:00,9.5,4.3,28.94,North,0,10.4,10.4,79,0.00,CLR,,0.00,WeatherDisplay:10.37,2013-02-19 07:06:00,
2013-02-19 01:11:00,10.0,4.8,28.94,NW,315,15.0,15.0,79,0.00,CLR,,0.00,WeatherDisplay:10.37,2013-02-19 07:11:00,
2013-02-19 01:16:00,10.2,5.0,28.94,NW,315,12.7,12.7,79,0.00,CLR,,0.00,WeatherDisplay:10.37,2013-02-19 07:16:00,
2013-02-19 01:21:00,10.2,4.7,28.94,North,0,12.7,12.7,78,0.00,CLR,,0.00,WeatherDisplay:10.37,2013-02-19 07:21:00,
2013-02-19 01:27:00,10.2,4.7,28.94,NW,315,12.7,12.7,78,0.00,CLR,,0.00,WeatherDisplay:10.37,2013-02-19 07:27:00,
2013-02-19 01:32:00,10.4,4.9,28.94,NW,315,11.5,11.5,78,0.00,CLR,,0.00,WeatherDisplay:10.37,2013-02-19 07:32:00,
2013-02-19 01:37:00,10.6,4.8,28.95,NW,315,12.7,12.7,77,0.00,CLR,,0.00,WeatherDisplay:10.37,2013-02-19 07:37:00,
2013-02-19 01:42:00,10.6,5.1,28.95,NW,315,11.4,11.4,78,0.00,CLR,,0.00,WeatherDisplay:10.37,2013-02-19 07:42:00,
2013-02-19 01:47:00,10.6,4.8,28.95,WNW,292,12.7,12.7,77,0.00,CLR,,0.00,WeatherDisplay:10.37,2013-02-19 07:47:00,
2013-02-19 01:53:00,10.4,4.6,28.95,NW,315,15.0,15.0,77,0.00,CLR,,0.00,WeatherDisplay:10.37,2013-02-19 07:53:00,
2013-02-19 01:58:00,10.4,4.6,28.95,NW,315,11.5,11.5,77,0.00,CLR,,0.00,WeatherDisplay:10.37,2013-02-19 07:58:00,
2013-02-19 02:03:00,10.4,4.6,28.95,NW,315,13.8,13.8,77,0.00,CLR,,0.00,WeatherDisplay:10.37,2013-02-19 08:03:00,
2013-02-19 02:09:00,10.4,4.6,28.95,NW,315,13.8,13.8,77,0.00,CLR,,0.00,WeatherDisplay:10.37,2013-02-19 08:09:00,
2013-02-19 02:14:00,10.4,4.6,28.96,NW,315,13.8,13.8,77,0.00,CLR,,0.00,WeatherDisplay:10.37,2013-02-19 08:14:00,
2013-02-19 02:19:00,10.4,4.6,28.96,North,0,12.7,12.7,77,0.00,CLR,,0.00,WeatherDisplay:10.37,2013-02-19 08:19:00,
2013-02-19 02:24:00,10.4,4.9,28.96,NW,315,12.7,12.7,78,0.00,CLR,,0.00,WeatherDisplay:10.37,2013-02-19 08:24:00,
2013-02-19 02:29:00,10.4,4.6,28.96,NW,315,13.8,13.8,77,0.00,CLR,,0.00,WeatherDisplay:10.37,2013-02-19 08:29:00,
2013-02-19 02:34:00,10.4,4.3,28.96,NW,315,17.3,17.3,76,0.00,CLR,,0.00,WeatherDisplay:10.37,2013-02-19 08:34:00,
2013-02-19 02:39:00,10.4,4.3,28.96,NW,315,11.5,11.5,76,0.00,CLR,,0.00,WeatherDisplay:10.37,2013-02-19 08:39:00,
2013-02-19 02:44:00,10.2,4.2,28.97,North,0,13.8,13.8,76,0.00,CLR,,0.00,WeatherDisplay:10.37,2013-02-19 08:44:00,
2013-02-19 02:50:00,10.0,4.0,28.97,North,0,15.0,15.0,76,0.00,CLR,,0.00,WeatherDisplay:10.37,2013-02-19 08:50:00,
2013-02-19 02:55:00,10.0,4.0,28.98,North,0,15.0,15.0,76,0.00,CLR,,0.00,WeatherDisplay:10.37,2013-02-19 08:55:00,
2013-02-19 03:00:00,9.9,3.8,28.98,North,0,10.4,10.4,76,0.00,CLR,,0.00,WeatherDisplay:10.37,2013-02-19 09:00:00,
2013-02-19 03:05:00,9.7,3.3,28.98,NW,315,11.5,11.5,75,0.00,CLR,,0.00,WeatherDisplay:10.37,2013-02-19 09:05:00,
2013-02-19 03:11:00,9.5,3.5,28.97,WNW,292,13.8,13.8,76,0.00,CLR,,0.00,WeatherDisplay:10.37,2013-02-19 09:11:00,
2013-02-19 03:16:00,9.3,3.3,28.98,North,0,9.2,9.2,76,0.00,CLR,,0.00,WeatherDisplay:10.37,2013-02-19 09:16:00,
2013-02-19 03:21:00,9.3,3.0,28.98,North,0,10.4,10.4,75,0.00,CLR,,0.00,WeatherDisplay:10.37,2013-02-19 09:21:00,
2013-02-19 03:26:00,9.1,2.5,28.98,NW,315,16.1,16.1,74,0.00,CLR,,0.00,WeatherDisplay:10.37,2013-02-19 09:26:00,
2013-02-19 03:31:00,9.1,2.8,28.98,NW,315,16.1,16.1,75,0.00,CLR,,0.00,WeatherDisplay:10.37,2013-02-19 09:31:00,
2013-02-19 03:37:00,9.1,2.8,28.98,North,0,10.4,10.4,75,0.00,CLR,,0.00,WeatherDisplay:10.37,2013-02-19 09:37:00,
2013-02-19 03:42:00,9.0,2.6,28.98,NW,315,12.7,12.7,75,0.00,CLR,,0.00,WeatherDisplay:10.37,2013-02-19 09:42:00,
2013-02-19 03:47:00,8.8,2.2,28.98,North,0,12.7,12.7,74,0.00,CLR,,0.00,WeatherDisplay:10.37,2013-02-19 09:47:00,
2013-02-19 03:52:00,8.8,2.2,28.99,NW,315,15.0,15.0,74,0.00,CLR,,0.00,WeatherDisplay:10.37,2013-02-19 09:52:00,
2013-02-19 03:58:00,8.8,2.5,28.99,NW,315,15.0,15.0,75,0.00,CLR,,0.00,WeatherDisplay:10.37,2013-02-19 09:58:00,
2013-02-19 04:03:00,8.8,2.8,28.99,NW,315,13.0,13.0,76,0.00,CLR,,0.00,WeatherDisplay:10.37,2013-02-19 10:03:00,
2013-02-19 04:08:00,8.4,2.1,28.99,North,0,12.7,12.7,75,0.00,CLR,,0.00,WeatherDisplay:10.37,2013-02-19 10:08:00,
2013-02-19 04:13:00,8.2,1.7,28.99,NE,45,13.8,13.8,74,0.00,CLR,,0.00,WeatherDisplay:10.37,2013-02-19 10:13:00,
2013-02-19 04:18:00,8.2,1.7,28.99,WNW,292,12.7,12.7,74,0.00,CLR,,0.00,WeatherDisplay:10.37,2013-02-19 10:18:00,
2013-02-19 04:24:00,8.1,1.5,29.00,NW,315,16.1,16.1,74,0.00,CLR,,0.00,WeatherDisplay:10.37,2013-02-19 10:24:00,
2013-02-19 04:29:00,7.9,1.3,29.00,North,0,12.7,12.7,74,0.00,CLR,,0.00,WeatherDisplay:10.37,2013-02-19 10:29:00,
2013-02-19 04:34:00,7.9,1.6,29.00,North,0,12.7,12.7,75,0.00,CLR,,0.00,WeatherDisplay:10.37,2013-02-19 10:34:00,
2013-02-19 04:39:00,7.9,1.6,29.00,North,0,12.7,12.7,75,0.00,CLR,,0.00,WeatherDisplay:10.37,2013-02-19 10:39:00,
2013-02-19 04:44:00,7.9,1.6,29.00,NW,315,13.8,13.8,75,0.00,CLR,,0.00,WeatherDisplay:10.37,2013-02-19 10:44:00,
2013-02-19 04:50:00,7.9,1.6,29.00,North,0,11.5,11.5,75,0.00,CLR,,0.00,WeatherDisplay:10.37,2013-02-19 10:50:00,
2013-02-19 04:55:00,7.7,1.4,29.01,NNE,15,12.7,12.7,75,0.00,CLR,,0.00,WeatherDisplay:10.37,2013-02-19 10:55:00,
2013-02-19 05:00:00,7.9,2.2,29.01,NW,315,12.7,12.7,77,0.00,CLR,,0.00,WeatherDisplay:10.37,2013-02-19 11:00:00,
2013-02-19 05:05:00,7.7,2.0,29.01,NW,315,12.7,12.7,77,0.00,CLR,,0.00,WeatherDisplay:10.37,2013-02-19 11:05:00,
2013-02-19 05:10:00,7.2,0.6,29.02,NW,315,15.0,15.0,74,0.00,CLR,,0.00,WeatherDisplay:10.37,2013-02-19 11:10:00,
2013-02-19 05:16:00,7.2,0.9,29.02,NW,315,12.7,12.7,75,0.00,CLR,,0.00,WeatherDisplay:10.37,2013-02-19 11:16:00,
2013-02-19 05:21:00,7.0,0.4,29.02,NW,315,15.0,15.0,74,0.00,CLR,,0.00,WeatherDisplay:10.37,2013-02-19 11:21:00,
2013-02-19 05:26:00,7.0,0.7,29.03,WNW,292,13.8,13.8,75,0.00,CLR,,0.00,WeatherDisplay:10.37,2013-02-19 11:26:00,
2013-02-19 05:32:00,7.0,0.7,29.03,NW,315,10.4,10.4,75,0.00,CLR,,0.00,WeatherDisplay:10.37,2013-02-19 11:32:00,
2013-02-19 05:37:00,6.8,0.3,29.03,WNW,292,12.7,12.7,74,0.00,CLR,,0.00,WeatherDisplay:10.37,2013-02-19 11:37:00,
2013-02-19 05:42:00,6.6,0.4,29.03,NW,315,16.1,16.1,75,0.00,CLR,,0.00,WeatherDisplay:10.37,2013-02-19 11:42:00,
2013-02-19 05:47:00,6.4,-0.1,29.03,NW,315,15.0,15.0,74,0.00,CLR,,0.00,WeatherDisplay:10.37,2013-02-19 11:47:00,
2013-02-19 05:52:00,6.4,0.2,29.03,NW,315,12.7,12.7,75,0.00,CLR,,0.00,WeatherDisplay:10.37,2013-02-19 11:52:00,
2013-02-19 05:58:00,6.3,0.0,29.04,NW,315,15.0,15.0,75,0.00,CLR,,0.00,WeatherDisplay:10.37,2013-02-19 11:58:00,
2013-02-19 06:03:00,6.3,0.0,29.04,WNW,292,15.0,15.0,75,0.00,CLR,,0.00,WeatherDisplay:10.37,2013-02-19 12:03:00,
2013-02-19 06:08:00,6.1,0.1,29.04,North,0,15.0,15.0,76,0.00,CLR,,0.00,WeatherDisplay:10.37,2013-02-19 12:08:00,
2013-02-19 06:13:00,6.1,0.4,29.05,NW,315,12.7,12.7,77,0.00,CLR,,0.00,WeatherDisplay:10.37,2013-02-19 12:13:00,
2013-02-19 06:19:00,6.1,0.4,29.05,NW,315,13.8,13.8,77,0.00,CLR,,0.00,WeatherDisplay:10.37,2013-02-19 12:19:00,
2013-02-19 06:24:00,6.1,0.4,29.05,WNW,292,14.5,14.5,77,0.00,CLR,,0.00,WeatherDisplay:10.37,2013-02-19 12:24:00,
2013-02-19 06:29:00,5.9,0.2,29.05,NW,315,11.5,11.5,77,0.00,CLR,,0.00,WeatherDisplay:10.37,2013-02-19 12:29:00,
2013-02-19 06:34:00,5.5,-0.1,29.05,NW,315,12.7,12.7,77,0.00,CLR,,0.00,WeatherDisplay:10.37,2013-02-19 12:34:00,
2013-02-19 06:40:00,5.4,-0.3,29.05,NNW,338,9.2,9.2,77,0.00,CLR,,0.00,WeatherDisplay:10.37,2013-02-19 12:40:00,
2013-02-19 06:45:00,5.2,-0.2,29.06,NW,315,11.5,11.5,78,0.00,CLR,,0.00,WeatherDisplay:10.37,2013-02-19 12:45:00,
2013-02-19 06:50:00,5.0,-0.6,29.06,NW,315,10.4,10.4,77,0.00,CLR,,0.00,WeatherDisplay:10.37,2013-02-19 12:50:00,
2013-02-19 06:55:00,4.8,-0.5,29.05,North,0,10.4,10.4,78,0.00,CLR,,0.00,WeatherDisplay:10.37,2013-02-19 12:55:00,
2013-02-19 07:00:00,4.8,-0.3,29.05,WNW,292,10.4,10.4,79,0.00,CLR,,0.00,WeatherDisplay:10.37,2013-02-19 13:00:00,
2013-02-19 07:06:00,4.8,-0.3,29.06,WNW,292,13.8,13.8,79,0.00,CLR,,0.00,WeatherDisplay:10.37,2013-02-19 13:06:00,
2013-02-19 07:11:00,4.3,-1.3,29.06,NW,315,11.5,11.5,77,0.00,CLR,,0.00,WeatherDisplay:10.37,2013-02-19 13:11:00,
2013-02-19 07:16:00,4.3,-1.1,29.07,NW,315,11.5,11.5,78,0.00,CLR,,0.00,WeatherDisplay:10.37,2013-02-19 13:16:00,
2013-02-19 07:21:00,4.1,-1.0,29.07,NNW,338,12.7,12.7,79,0.00,CLR,,0.00,WeatherDisplay:10.37,2013-02-19 13:21:00,
2013-02-19 07:26:00,3.9,-1.4,29.08,NW,315,11.5,11.5,78,0.00,CLR,,0.00,WeatherDisplay:10.37,2013-02-19 13:26:00,
2013-02-19 07:32:00,4.1,-1.5,29.08,NW,315,12.7,12.7,77,0.00,CLR,,0.00,WeatherDisplay:10.37,2013-02-19 13:32:00,
2013-02-19 07:37:00,4.3,-1.6,29.08,NW,315,13.8,13.8,76,0.00,CLR,,0.00,WeatherDisplay:10.37,2013-02-19 13:37:00,
2013-02-19 07:42:00,4.3,-1.9,29.08,NW,315,13.8,13.8,75,0.00,CLR,,0.00,WeatherDisplay:10.37,2013-02-19 13:42:00,
2013-02-19 07:47:00,4.5,-1.7,29.08,NW,315,12.7,12.7,75,0.00,CLR,,0.00,WeatherDisplay:10.37,2013-02-19 13:47:00,
2013-02-19 07:52:00,4.6,-1.5,29.09,NW,315,10.4,10.4,75,0.00,CLR,,0.00,WeatherDisplay:10.37,2013-02-19 13:52:00,
2013-02-19 07:57:00,4.8,-1.7,29.09,NW,315,13.8,13.8,74,0.00,CLR,,0.00,WeatherDisplay:10.37,2013-02-19 13:57:00,
2013-02-19 08:03:00,4.8,-1.7,29.09,NW,315,11.5,11.5,74,0.00,CLR,,0.00,WeatherDisplay:10.37,2013-02-19 14:03:00,
2013-02-19 08:08:00,5.2,-1.6,29.09,NW,315,14.5,14.5,73,0.00,CLR,,0.00,WeatherDisplay:10.37,2013-02-19 14:08:00,
2013-02-19 08:13:00,5.2,-1.9,29.09,WNW,292,15.0,15.0,72,0.00,CLR,,0.00,WeatherDisplay:10.37,2013-02-19 14:13:00,
2013-02-19 08:18:00,5.0,-2.1,29.10,North,0,10.4,10.4,72,0.00,CLR,,0.00,WeatherDisplay:10.37,2013-02-19 14:18:00,
2013-02-19 08:23:00,5.0,-2.1,29.10,North,0,10.4,10.4,72,0.00,CLR,,0.00,WeatherDisplay:10.37,2013-02-19 14:23:00,
2013-02-19 08:28:00,6.1,-1.0,29.10,North,0,12.7,12.7,72,0.00,CLR,,0.00,WeatherDisplay:10.37,2013-02-19 14:28:00,
2013-02-19 08:33:00,6.1,-1.3,29.10,NW,315,11.5,11.5,71,0.00,CLR,,0.00,WeatherDisplay:10.37,2013-02-19 14:33:00,
2013-02-19 08:38:00,6.4,-1.0,29.10,WNW,292,10.4,10.4,71,0.00,CLR,,0.00,WeatherDisplay:10.37,2013-02-19 14:38:00,
2013-02-19 08:43:00,7.0,-1.1,29.11,North,0,12.7,12.7,69,0.00,CLR,,0.00,WeatherDisplay:10.37,2013-02-19 14:43:00,
2013-02-19 08:48:00,7.0,-1.1,29.11,NNW,338,11.5,11.5,69,0.00,CLR,,0.00,WeatherDisplay:10.37,2013-02-19 14:48:00,
2013-02-19 08:54:00,7.0,-1.4,29.11,NW,315,11.5,11.5,68,0.00,CLR,,0.00,WeatherDisplay:10.37,2013-02-19 14:54:00,
2013-02-19 08:59:00,7.3,-0.7,29.11,NW,315,10.4,10.4,69,0.00,CLR,,0.00,WeatherDisplay:10.37,2013-02-19 14:59:00,
2013-02-19 09:04:00,7.9,-0.5,29.11,NW,315,11.5,11.5,68,0.00,CLR,,0.00,WeatherDisplay:10.37,2013-02-19 15:04:00,
2013-02-19 09:09:00,7.9,-1.1,29.11,NW,315,12.7,12.7,66,0.00,CLR,,0.00,WeatherDisplay:10.37,2013-02-19 15:09:00,
2013-02-19 09:14:00,8.1,-0.6,29.12,North,0,12.7,12.7,67,0.00,CLR,,0.00,WeatherDisplay:10.37,2013-02-19 15:14:00,
2013-02-19 09:19:00,8.4,-0.9,29.12,NNW,338,11.5,11.5,65,0.00,CLR,,0.00,WeatherDisplay:10.37,2013-02-19 15:19:00,
2013-02-19 09:25:00,8.8,-0.3,29.13,NW,315,11.5,11.5,66,0.00,CLR,,0.00,WeatherDisplay:10.37,2013-02-19 15:25:00,
2013-02-19 09:30:00,9.1,0.1,29.12,NW,315,11.5,11.5,66,0.00,CLR,,0.00,WeatherDisplay:10.37,2013-02-19 15:30:00,
2013-02-19 09:35:00,9.7,0.3,29.12,NW,315,11.5,11.5,65,0.00,CLR,,0.00,WeatherDisplay:10.37,2013-02-19 15:35:00,
2013-02-19 09:40:00,9.5,-0.6,29.12,NW,315,13.8,13.8,63,0.00,CLR,,0.00,WeatherDisplay:10.37,2013-02-19 15:40:00,
2013-02-19 09:46:00,8.8,-1.6,29.13,NW,315,17.3,17.3,62,0.00,CLR,,0.00,WeatherDisplay:10.37,2013-02-19 15:46:00,
2013-02-19 09:51:00,8.6,-1.4,29.13,NW,315,13.8,13.8,63,0.00,CLR,,0.00,WeatherDisplay:10.37,2013-02-19 15:51:00,
2013-02-19 09:56:00,9.3,-0.7,29.13,NW,315,12.7,12.7,63,0.00,CLR,,0.00,WeatherDisplay:10.37,2013-02-19 15:56:00,
2013-02-19 10:01:00,9.7,-0.4,29.13,NW,315,11.5,11.5,63,0.00,CLR,,0.00,WeatherDisplay:10.37,2013-02-19 16:01:00,
2013-02-19 10:06:00,10.0,-0.4,29.13,North,0,11.5,11.5,62,0.00,CLR,,0.00,WeatherDisplay:10.37,2013-02-19 16:06:00,
2013-02-19 10:12:00,10.4,-0.1,29.14,NW,315,12.7,12.7,62,0.00,CLR,,0.00,WeatherDisplay:10.37,2013-02-19 16:12:00,
2013-02-19 10:17:00,10.4,-0.8,29.14,NW,315,11.5,11.5,60,0.00,CLR,,0.00,WeatherDisplay:10.37,2013-02-19 16:17:00,
2013-02-19 10:22:00,11.3,0.1,29.14,North,0,9.2,9.2,60,0.00,CLR,,0.00,WeatherDisplay:10.37,2013-02-19 16:22:00,
2013-02-19 10:27:00,11.7,0.8,29.14,NW,315,10.4,10.4,61,0.00,CLR,,0.00,WeatherDisplay:10.37,2013-02-19 16:27:00,
2013-02-19 10:32:00,11.7,-0.3,29.14,NW,315,11.5,11.5,58,0.00,CLR,,0.00,WeatherDisplay:10.37,2013-02-19 16:32:00,
2013-02-19 10:37:00,11.3,-0.6,29.14,North,0,12.7,12.7,58,0.00,CLR,,0.00,WeatherDisplay:10.37,2013-02-19 16:37:00,
2013-02-19 10:42:00,11.8,0.2,29.15,NW,315,12.7,12.7,59,0.00,CLR,,0.00,WeatherDisplay:10.37,2013-02-19 16:42:00,
2013-02-19 10:48:00,12.2,0.2,29.15,NNW,338,8.1,8.1,58,0.00,CLR,,0.00,WeatherDisplay:10.37,2013-02-19 16:48:00,
2013-02-19 10:53:00,12.4,0.0,29.15,WNW,292,12.7,12.7,57,0.00,CLR,,0.00,WeatherDisplay:10.37,2013-02-19 16:53:00,
2013-02-19 10:58:00,13.1,1.1,29.15,NW,315,12.7,12.7,58,0.00,CLR,,0.00,WeatherDisplay:10.37,2013-02-19 16:58:00,
2013-02-19 11:03:00,13.8,1.4,29.15,NW,315,12.7,12.7,57,0.00,CLR,,0.00,WeatherDisplay:10.37,2013-02-19 17:03:00,
2013-02-19 11:08:00,14.4,2.3,29.15,North,0,8.1,8.1,58,0.00,CLR,,0.00,WeatherDisplay:10.37,2013-02-19 17:08:00,
2013-02-19 11:14:00,14.4,1.5,29.15,NW,315,12.7,12.7,56,0.00,CLR,,0.00,WeatherDisplay:10.37,2013-02-19 17:14:00,
2013-02-19 11:19:00,14.5,1.3,29.15,NW,315,10.4,10.4,55,0.00,CLR,,0.00,WeatherDisplay:10.37,2013-02-19 17:19:00,
2013-02-19 11:24:00,14.7,1.5,29.15,North,0,12.7,12.7,55,0.00,CLR,,0.00,WeatherDisplay:10.37,2013-02-19 17:24:00,
2013-02-19 11:29:00,15.4,2.9,29.15,North,0,9.2,9.2,57,0.00,CLR,,0.00,WeatherDisplay:10.37,2013-02-19 17:29:00,
2013-02-19 11:35:00,15.6,1.9,29.15,North,0,12.7,12.7,54,0.00,CLR,,0.00,WeatherDisplay:10.37,2013-02-19 17:35:00,
2013-02-19 11:40:00,15.3,1.2,29.15,NW,315,8.1,8.1,53,0.00,CLR,,0.00,WeatherDisplay:10.37,2013-02-19 17:40:00,
2013-02-19 11:45:00,15.3,1.2,29.15,North,0,12.7,12.7,53,0.00,CLR,,0.00,WeatherDisplay:10.37,2013-02-19 17:45:00,
2013-02-19 11:50:00,14.5,0.5,29.16,North,0,12.7,12.7,53,0.00,CLR,,0.00,WeatherDisplay:10.37,2013-02-19 17:50:00,
2013-02-19 11:55:00,14.9,1.2,29.16,NW,315,10.4,10.4,54,0.00,CLR,,0.00,WeatherDisplay:10.37,2013-02-19 17:55:00,
2013-02-19 12:00:00,15.4,1.7,29.16,SW,225,10.4,10.4,54,0.00,CLR,,0.00,WeatherDisplay:10.37,2013-02-19 18:00:00,
2013-02-19 12:05:00,16.5,3.1,29.16,NW,315,9.2,9.2,55,0.00,CLR,,0.00,WeatherDisplay:10.37,2013-02-19 18:05:00,
2013-02-19 12:11:00,16.9,3.1,29.15,NW,315,11.5,11.5,54,0.00,CLR,,0.00,WeatherDisplay:10.37,2013-02-19 18:11:00,
2013-02-19 12:16:00,16.9,2.7,29.15,NW,315,9.2,9.2,53,0.00,CLR,,0.00,WeatherDisplay:10.37,2013-02-19 18:16:00,
2013-02-19 12:21:00,16.7,2.1,29.15,North,0,11.5,11.5,52,0.00,CLR,,0.00,WeatherDisplay:10.37,2013-02-19 18:21:00,
2013-02-19 12:26:00,17.4,4.0,29.15,NW,315,11.5,11.5,55,0.00,CLR,,0.00,WeatherDisplay:10.37,2013-02-19 18:26:00,
2013-02-19 12:31:00,18.0,3.3,29.16,WNW,292,12.7,12.7,52,0.00,CLR,,0.00,WeatherDisplay:10.37,2013-02-19 18:31:00,
2013-02-19 12:37:00,17.8,2.7,29.15,NW,315,12.7,12.7,51,0.00,CLR,,0.00,WeatherDisplay:10.37,2013-02-19 18:37:00,
2013-02-19 12:42:00,17.8,2.7,29.15,NW,315,9.2,9.2,51,0.00,CLR,,0.00,WeatherDisplay:10.37,2013-02-19 18:42:00,
2013-02-19 12:47:00,18.3,2.8,29.15,NW,315,12.7,12.7,50,0.00,CLR,,0.00,WeatherDisplay:10.37,2013-02-19 18:47:00,
2013-02-19 12:52:00,17.8,2.7,29.15,NW,315,12.7,12.7,51,0.00,CLR,,0.00,WeatherDisplay:10.37,2013-02-19 18:52:00,
2013-02-19 12:57:00,18.1,3.4,29.15,NW,315,12.7,12.7,52,0.00,CLR,,0.00,WeatherDisplay:10.37,2013-02-19 18:57:00,
2013-02-19 13:02:00,18.1,2.6,29.15,North,0,12.7,12.7,50,0.00,CLR,,0.00,WeatherDisplay:10.37,2013-02-19 19:02:00,
2013-02-19 13:07:00,18.7,2.7,29.15,NW,315,10.4,10.4,49,0.00,CLR,,0.00,WeatherDisplay:10.37,2013-02-19 19:07:00,
2013-02-19 13:12:00,19.0,3.0,29.15,North,0,8.1,8.1,49,0.00,CLR,,0.00,WeatherDisplay:10.37,2013-02-19 19:12:00,
2013-02-19 13:18:00,19.6,4.4,29.14,North,0,10.4,10.4,51,0.00,CLR,,0.00,WeatherDisplay:10.37,2013-02-19 19:18:00,
2013-02-19 13:23:00,19.2,3.2,29.14,NE,45,8.1,8.1,49,0.00,CLR,,0.00,WeatherDisplay:10.37,2013-02-19 19:23:00,
2013-02-19 13:28:00,19.2,3.2,29.15,North,0,11.5,11.5,49,0.00,CLR,,0.00,WeatherDisplay:10.37,2013-02-19 19:28:00,
2013-02-19 13:33:00,18.7,2.7,29.15,NW,315,9.2,9.2,49,0.00,CLR,,0.00,WeatherDisplay:10.37,2013-02-19 19:33:00,
2013-02-19 13:39:00,19.0,3.4,29.14,WNW,292,9.2,9.2,50,0.00,CLR,,0.00,WeatherDisplay:10.37,2013-02-19 19:39:00,
2013-02-19 13:44:00,19.2,2.7,29.14,NW,315,10.4,10.4,48,0.00,CLR,,0.00,WeatherDisplay:10.37,2013-02-19 19:44:00,
2013-02-19 13:49:00,19.6,3.5,29.15,NW,315,5.8,6.9,49,0.00,CLR,,0.00,WeatherDisplay:10.37,2013-02-19 19:49:00,
2013-02-19 13:54:00,19.4,2.9,29.15,North,0,11.5,11.5,48,0.00,CLR,,0.00,WeatherDisplay:10.37,2013-02-19 19:54:00,
2013-02-19 13:59:00,19.0,3.4,29.15,North,0,8.1,8.1,50,0.00,CLR,,0.00,WeatherDisplay:10.37,2013-02-19 19:59:00,
2013-02-19 14:05:00,18.7,2.2,29.15,NW,315,10.4,10.4,48,0.00,CLR,,0.00,WeatherDisplay:10.37,2013-02-19 20:05:00,
2013-02-19 14:10:00,18.7,2.2,29.15,NW,315,10.4,10.4,48,0.00,CLR,,0.00,WeatherDisplay:10.37,2013-02-19 20:10:00,
2013-02-19 14:15:00,18.5,2.5,29.15,NW,315,12.7,12.7,49,0.00,CLR,,0.00,WeatherDisplay:10.37,2013-02-19 20:15:00,
2013-02-19 14:20:00,18.3,2.3,29.15,NW,315,12.7,12.7,49,0.00,CLR,,0.00,WeatherDisplay:10.37,2013-02-19 20:20:00,
2013-02-19 14:25:00,18.9,3.3,29.15,North,0,9.2,9.2,50,0.00,CLR,,0.00,WeatherDisplay:10.37,2013-02-19 20:25:00,
2013-02-19 14:31:00,19.0,2.5,29.15,NW,315,12.7,12.7,48,0.00,CLR,,0.00,WeatherDisplay:10.37,2013-02-19 20:31:00,
2013-02-19 14:36:00,19.0,2.5,29.15,North,0,11.5,11.5,48,0.00,CLR,,0.00,WeatherDisplay:10.37,2013-02-19 20:36:00,
2013-02-19 14:41:00,18.9,2.8,29.15,North,0,10.4,10.4,49,0.00,CLR,,0.00,WeatherDisplay:10.37,2013-02-19 20:41:00,
2013-02-19 14:46:00,18.7,2.7,29.15,North,0,13.8,13.8,49,0.00,CLR,,0.00,WeatherDisplay:10.37,2013-02-19 20:46:00,
2013-02-19 14:52:00,19.0,3.4,29.15,NW,315,12.7,12.7,50,0.00,CLR,,0.00,WeatherDisplay:10.37,2013-02-19 20:52:00,
2013-02-19 14:57:00,19.4,3.3,29.14,NW,315,10.4,10.4,49,0.00,CLR,,0.00,WeatherDisplay:10.37,2013-02-19 20:57:00,
2013-02-19 15:02:00,19.9,3.4,29.14,NW,315,8.1,8.1,48,0.00,CLR,,0.00,WeatherDisplay:10.37,2013-02-19 21:02:00,
2013-02-19 15:07:00,20.3,3.7,29.14,North,0,10.4,10.4,48,0.00,CLR,,0.00,WeatherDisplay:10.37,2013-02-19 21:07:00,
2013-02-19 15:12:00,19.9,2.9,29.14,North,0,10.4,10.4,47,0.00,CLR,,0.00,WeatherDisplay:10.37,2013-02-19 21:12:00,
2013-02-19 15:18:00,19.4,2.9,29.14,North,0,9.2,9.2,48,0.00,CLR,,0.00,WeatherDisplay:10.37,2013-02-19 21:18:00,
2013-02-19 15:23:00,19.0,2.5,29.14,NE,45,11.5,11.5,48,0.00,CLR,,0.00,WeatherDisplay:10.37,2013-02-19 21:23:00,
2013-02-19 15:28:00,19.0,2.5,29.14,West,270,11.5,11.5,48,0.00,CLR,,0.00,WeatherDisplay:10.37,2013-02-19 21:28:00,
2013-02-19 15:33:00,19.2,2.3,29.14,North,0,5.8,5.8,47,0.00,CLR,,0.00,WeatherDisplay:10.37,2013-02-19 21:33:00,
2013-02-19 15:39:00,20.1,2.6,29.14,NW,315,8.1,8.1,46,0.00,CLR,,0.00,WeatherDisplay:10.37,2013-02-19 21:39:00,
2013-02-19 15:44:00,19.2,1.3,29.14,NW,315,11.5,11.5,45,0.00,CLR,,0.00,WeatherDisplay:10.37,2013-02-19 21:44:00,
2013-02-19 15:49:00,18.7,2.2,29.14,NW,315,9.2,9.2,48,0.00,CLR,,0.00,WeatherDisplay:10.37,2013-02-19 21:49:00,
2013-02-19 15:54:00,18.9,1.5,29.14,North,0,8.1,8.1,46,0.00,CLR,,0.00,WeatherDisplay:10.37,2013-02-19 21:54:00,
2013-02-19 15:59:00,18.9,1.5,29.14,North,0,8.1,8.1,46,0.00,CLR,,0.00,WeatherDisplay:10.37,2013-02-19 21:59:00,
2013-02-19 16:05:00,19.0,1.6,29.15,North,0,8.1,8.1,46,0.00,CLR,,0.00,WeatherDisplay:10.37,2013-02-19 22:05:00,
2013-02-19 16:10:00,19.4,2.0,29.14,North,0,8.1,8.1,46,0.00,CLR,,0.00,WeatherDisplay:10.37,2013-02-19 22:10:00,
2013-02-19 16:15:00,19.4,1.5,29.14,North,0,8.1,8.1,45,0.00,CLR,,0.00,WeatherDisplay:10.37,2013-02-19 22:15:00,
2013-02-19 16:20:00,19.8,1.8,29.15,NW,315,9.2,9.2,45,0.00,CLR,,0.00,WeatherDisplay:10.37,2013-02-19 22:20:00,
2013-02-19 16:26:00,18.9,1.5,29.15,North,0,8.1,8.1,46,0.00,CLR,,0.00,WeatherDisplay:10.37,2013-02-19 22:26:00,
2013-02-19 16:31:00,18.5,1.6,29.14,NW,315,8.1,8.1,47,0.00,CLR,,0.00,WeatherDisplay:10.37,2013-02-19 22:31:00,
2013-02-19 16:36:00,18.7,1.8,29.15,WNW,292,4.6,4.6,47,0.00,CLR,,0.00,WeatherDisplay:10.37,2013-02-19 22:36:00,
2013-02-19 16:41:00,18.3,1.4,29.14,NW,315,6.9,6.9,47,0.00,CLR,,0.00,WeatherDisplay:10.37,2013-02-19 22:41:00,
2013-02-19 16:46:00,16.7,1.3,29.14,NW,315,10.4,10.4,50,0.00,CLR,,0.00,WeatherDisplay:10.37,2013-02-19 22:46:00,
2013-02-19 16:52:00,16.0,1.8,29.14,NNE,22,8.1,8.1,53,0.00,CLR,,0.00,WeatherDisplay:10.37,2013-02-19 22:52:00,
2013-02-19 16:57:00,15.4,1.7,29.14,NW,315,8.1,8.1,54,0.00,CLR,,0.00,WeatherDisplay:10.37,2013-02-19 22:57:00,
2013-02-19 17:02:00,15.1,1.4,29.14,NW,315,8.1,8.1,54,0.00,CLR,,0.00,WeatherDisplay:10.37,2013-02-19 23:02:00,
2013-02-19 17:07:00,15.3,2.0,29.14,NW,315,8.1,8.1,55,0.00,CLR,,0.00,WeatherDisplay:10.37,2013-02-19 23:07:00,
2013-02-19 17:13:00,14.9,1.6,29.14,NW,315,8.1,8.1,55,0.00,CLR,,0.00,WeatherDisplay:10.37,2013-02-19 23:13:00,
2013-02-19 17:18:00,14.0,1.5,29.14,NW,315,8.1,8.1,57,0.00,CLR,,0.00,WeatherDisplay:10.37,2013-02-19 23:18:00,
2013-02-19 17:23:00,13.8,1.7,29.14,NW,315,8.1,8.1,58,0.00,CLR,,0.00,WeatherDisplay:10.37,2013-02-19 23:23:00,
2013-02-19 17:28:00,13.5,1.4,29.14,NNW,338,10.4,10.4,58,0.00,CLR,,0.00,WeatherDisplay:10.37,2013-02-19 23:28:00,
2013-02-19 17:33:00,12.9,1.3,29.14,NW,315,10.4,10.4,59,0.00,CLR,,0.00,WeatherDisplay:10.37,2013-02-19 23:33:00,
2013-02-19 17:39:00,12.7,1.5,29.14,NW,315,8.1,8.1,60,0.00,CLR,,0.00,WeatherDisplay:10.37,2013-02-19 23:39:00,
2013-02-19 17:44:00,12.0,1.1,29.15,North,0,8.1,8.1,61,0.00,CLR,,0.00,WeatherDisplay:10.37,2013-02-19 23:44:00,
2013-02-19 17:49:00,11.5,1.0,29.14,NW,315,8.1,8.1,62,0.00,CLR,,0.00,WeatherDisplay:10.37,2013-02-19 23:49:00,
2013-02-19 17:54:00,10.8,0.6,29.15,NW,315,8.1,8.1,63,0.00,CLR,,0.00,WeatherDisplay:10.37,2013-02-19 23:54:00,
2013-02-19 17:59:00,10.6,0.8,29.14,NNW,338,6.9,6.9,64,0.00,CLR,,0.00,WeatherDisplay:10.37,2013-02-19 23:59:00,
2013-02-19 18:05:00,10.2,0.4,29.15,NW,315,5.8,5.8,64,0.00,CLR,,0.00,WeatherDisplay:10.37,2013-02-20 00:05:00,
2013-02-19 18:10:00,9.9,0.4,29.15,North,0,8.1,8.1,65,0.00,CLR,,0.00,WeatherDisplay:10.37,2013-02-20 00:10:00,
2013-02-19 18:15:00,9.7,0.3,29.15,North,0,5.8,5.8,65,0.00,CLR,,0.00,WeatherDisplay:10.37,2013-02-20 00:15:00,
2013-02-19 18:20:00,9.3,0.2,29.15,NW,315,5.8,5.8,66,0.00,CLR,,0.00,WeatherDisplay:10.37,2013-02-20 00:20:00,
2013-02-19 18:25:00,9.3,0.2,29.15,NW,315,5.8,5.8,66,0.00,CLR,,0.00,WeatherDisplay:10.37,2013-02-20 00:25:00,
2013-02-19 18:30:00,9.0,0.5,29.15,NW,315,5.8,5.8,68,0.00,CLR,,0.00,WeatherDisplay:10.37,2013-02-20 00:30:00,
2013-02-19 18:36:00,8.8,0.4,29.16,NE,45,5.8,5.8,68,0.00,CLR,,0.00,WeatherDisplay:10.37,2013-02-20 00:36:00,
2013-02-19 18:41:00,8.4,0.0,29.16,NW,315,4.6,4.6,68,0.00,CLR,,0.00,WeatherDisplay:10.37,2013-02-20 00:41:00,
2013-02-19 18:46:00,8.2,0.5,29.16,North,0,5.8,5.8,70,0.00,CLR,,0.00,WeatherDisplay:10.37,2013-02-20 00:46:00,
2013-02-19 18:51:00,8.1,0.0,29.16,North,0,3.5,3.5,69,0.00,CLR,,0.00,WeatherDisplay:10.37,2013-02-20 00:51:00,
2013-02-19 18:56:00,7.9,0.1,29.16,NW,315,5.8,5.8,70,0.00,CLR,,0.00,WeatherDisplay:10.37,2013-02-20 00:56:00,
2013-02-19 19:02:00,7.9,0.1,29.16,North,0,3.5,3.5,70,0.00,CLR,,0.00,WeatherDisplay:10.37,2013-02-20 01:02:00,
2013-02-19 19:07:00,7.9,0.1,29.17,North,0,3.5,3.5,70,0.00,CLR,,0.00,WeatherDisplay:10.37,2013-02-20 01:07:00,
2013-02-19 19:12:00,7.3,0.5,29.16,NW,315,3.5,3.5,73,0.00,CLR,,0.00,WeatherDisplay:10.37,2013-02-20 01:12:00,
2013-02-19 19:17:00,7.0,0.4,29.17,NW,315,3.5,3.5,74,0.00,CLR,,0.00,WeatherDisplay:10.37,2013-02-20 01:17:00,
2013-02-19 19:22:00,6.8,0.6,29.16,North,0,5.8,5.8,75,0.00,CLR,,0.00,WeatherDisplay:10.37,2013-02-20 01:22:00,
2013-02-19 19:27:00,6.8,0.3,29.16,NW,315,5.8,5.8,74,0.00,CLR,,0.00,WeatherDisplay:10.37,2013-02-20 01:27:00,
2013-02-19 19:33:00,6.8,0.3,29.16,North,0,3.5,3.5,74,0.00,CLR,,0.00,WeatherDisplay:10.37,2013-02-20 01:33:00,
2013-02-19 19:38:00,6.6,0.4,29.16,NW,315,4.6,4.6,75,0.00,CLR,,0.00,WeatherDisplay:10.37,2013-02-20 01:38:00,
2013-02-19 19:43:00,6.4,0.5,29.17,NW,315,3.5,3.5,76,0.00,CLR,,0.00,WeatherDisplay:10.37,2013-02-20 01:43:00,
2013-02-19 19:48:00,6.3,0.3,29.17,North,0,3.5,3.5,76,0.00,CLR,,0.00,WeatherDisplay:10.37,2013-02-20 01:48:00,
2013-02-19 19:54:00,6.1,0.1,29.17,NW,315,4.6,4.6,76,0.00,CLR,,0.00,WeatherDisplay:10.37,2013-02-20 01:54:00,
2013-02-19 19:59:00,5.9,0.0,29.17,North,0,5.8,5.8,76,0.00,CLR,,0.00,WeatherDisplay:10.37,2013-02-20 01:59:00,
2013-02-19 20:04:00,5.9,0.0,29.17,NW,315,3.5,3.5,76,0.00,CLR,,0.00,WeatherDisplay:10.37,2013-02-20 02:04:00,
2013-02-19 20:09:00,5.7,-0.2,29.17,North,0,3.5,3.5,76,0.00,CLR,,0.00,WeatherDisplay:10.37,2013-02-20 02:09:00,
2013-02-19 20:15:00,5.5,-0.4,29.17,NNW,338,3.0,6.0,76,0.00,CLR,,0.00,WeatherDisplay:10.37,2013-02-20 02:15:00,
2013-02-19 20:20:00,5.4,-0.3,29.18,NW,315,3.5,3.5,77,0.00,CLR,,0.00,WeatherDisplay:10.37,2013-02-20 02:20:00,
2013-02-19 20:25:00,5.2,-0.5,29.18,West,270,4.6,4.6,77,0.00,CLR,,0.00,WeatherDisplay:10.37,2013-02-20 02:25:00,
2013-02-19 20:30:00,5.2,-0.2,29.18,NW,315,3.5,3.5,78,0.00,CLR,,0.00,WeatherDisplay:10.37,2013-02-20 02:30:00,
2013-02-19 20:35:00,5.0,-0.4,29.17,North,0,3.5,3.5,78,0.00,CLR,,0.00,WeatherDisplay:10.37,2013-02-20 02:35:00,
2013-02-19 20:40:00,4.8,-0.5,29.17,North,0,4.6,4.6,78,0.00,CLR,,0.00,WeatherDisplay:10.37,2013-02-20 02:40:00,
2013-02-19 20:45:00,4.8,-0.3,29.18,NW,315,5.8,5.8,79,0.00,CLR,,0.00,WeatherDisplay:10.37,2013-02-20 02:45:00,
2013-02-19 20:50:00,4.6,-0.4,29.18,NW,315,4.6,4.6,79,0.00,CLR,,0.00,WeatherDisplay:10.37,2013-02-20 02:50:00,
2013-02-19 20:55:00,4.5,-0.9,29.18,NW,315,3.5,3.5,78,0.00,CLR,,0.00,WeatherDisplay:10.37,2013-02-20 02:55:00,
2013-02-19 21:00:00,4.5,-0.6,29.18,NNW,338,3.5,3.5,79,0.00,CLR,,0.00,WeatherDisplay:10.37,2013-02-20 03:00:00,
2013-02-19 21:06:00,4.5,-0.6,29.18,NNW,338,3.8,3.8,79,0.00,CLR,,0.00,WeatherDisplay:10.37,2013-02-20 03:06:00,
2013-02-19 21:11:00,4.1,-1.2,29.18,North,0,3.5,3.5,78,0.00,CLR,,0.00,WeatherDisplay:10.37,2013-02-20 03:11:00,
2013-02-19 21:16:00,3.9,-1.4,29.18,North,0,3.5,3.5,78,0.00,CLR,,0.00,WeatherDisplay:10.37,2013-02-20 03:16:00,
2013-02-19 21:21:00,3.9,-1.1,29.18,NNW,338,5.8,5.8,79,0.00,CLR,,0.00,WeatherDisplay:10.37,2013-02-20 03:21:00,
2013-02-19 21:27:00,3.7,-1.6,29.18,NW,315,3.5,3.5,78,0.00,CLR,,0.00,WeatherDisplay:10.37,2013-02-20 03:27:00,
2013-02-19 21:32:00,3.7,-1.3,29.19,NNW,338,3.5,3.5,79,0.00,CLR,,0.00,WeatherDisplay:10.37,2013-02-20 03:32:00,
2013-02-19 21:37:00,3.4,-1.7,29.19,North,0,2.3,2.3,79,0.00,CLR,,0.00,WeatherDisplay:10.37,2013-02-20 03:37:00,
2013-02-19 21:43:00,3.2,-1.8,29.19,West,270,3.5,3.5,79,0.00,CLR,,0.00,WeatherDisplay:10.37,2013-02-20 03:43:00,
2013-02-19 21:48:00,3.2,-1.8,29.19,NW,315,3.5,3.5,79,0.00,CLR,,0.00,WeatherDisplay:10.37,2013-02-20 03:48:00,
2013-02-19 21:53:00,3.0,-2.0,29.19,NW,315,3.5,3.5,79,0.00,CLR,,0.00,WeatherDisplay:10.37,2013-02-20 03:53:00,
2013-02-19 21:58:00,2.8,-2.2,29.19,NW,315,2.3,2.3,79,0.00,CLR,,0.00,WeatherDisplay:10.37,2013-02-20 03:58:00,
2013-02-19 22:04:00,2.8,-2.2,29.19,NW,315,2.3,2.3,79,0.00,CLR,,0.00,WeatherDisplay:10.37,2013-02-20 04:04:00,
2013-02-19 22:09:00,2.7,-2.4,29.19,NW,315,3.5,3.5,79,0.00,CLR,,0.00,WeatherDisplay:10.37,2013-02-20 04:09:00,
2013-02-19 22:14:00,2.5,-2.3,29.19,NW,315,1.2,0.0,80,0.00,CLR,,0.00,WeatherDisplay:10.37,2013-02-20 04:14:00,
2013-02-19 22:19:00,2.5,-2.3,29.20,NW,315,3.5,3.5,80,0.00,CLR,,0.00,WeatherDisplay:10.37,2013-02-20 04:19:00,
2013-02-19 22:25:00,2.3,-2.2,29.20,NW,315,3.5,3.5,81,0.00,CLR,,0.00,WeatherDisplay:10.37,2013-02-20 04:25:00,
2013-02-19 22:30:00,2.1,-2.4,29.20,North,0,3.5,3.5,81,0.00,CLR,,0.00,WeatherDisplay:10.37,2013-02-20 04:30:00,
2013-02-19 22:35:00,2.1,-2.4,29.20,NW,315,3.5,3.5,81,0.00,CLR,,0.00,WeatherDisplay:10.37,2013-02-20 04:35:00,
2013-02-19 22:41:00,1.9,-2.5,29.20,NW,315,3.5,3.5,81,0.00,CLR,,0.00,WeatherDisplay:10.37,2013-02-20 04:41:00,
2013-02-19 22:46:00,1.9,-2.3,29.20,NW,315,3.8,3.8,82,0.00,CLR,,0.00,WeatherDisplay:10.37,2013-02-20 04:46:00,
2013-02-19 22:51:00,1.8,-2.5,29.20,NW,315,3.5,3.5,82,0.00,CLR,,0.00,WeatherDisplay:10.37,2013-02-20 04:51:00,
2013-02-19 22:56:00,1.8,-2.5,29.21,NW,315,3.5,3.5,82,0.00,CLR,,0.00,WeatherDisplay:10.37,2013-02-20 04:56:00,
2013-02-19 23:00:00,1.6,-2.6,29.21,NW,315,3.5,3.5,82,0.00,CLR,,0.00,WeatherDisplay:10.37,2013-02-20 05:00:00,
2013-02-19 23:01:00,1.6,-2.6,29.21,NW,315,3.5,3.5,82,0.00,CLR,,0.00,WeatherDisplay:10.37,2013-02-20 05:01:00,
2013-02-19 23:07:00,1.4,-2.8,29.20,NW,315,2.3,2.3,82,0.00,CLR,,0.00,WeatherDisplay:10.37,2013-02-20 05:07:00,
2013-02-19 23:12:00,1.2,-3.0,29.20,North,0,2.3,2.3,82,0.00,CLR,,0.00,WeatherDisplay:10.37,2013-02-20 05:12:00,
2013-02-19 23:17:00,1.2,-3.0,29.20,NNE,22,2.3,2.3,82,0.00,CLR,,0.00,WeatherDisplay:10.37,2013-02-20 05:17:00,
2013-02-19 23:22:00,1.0,-3.2,29.20,NW,315,2.3,0.0,82,0.00,CLR,,0.00,WeatherDisplay:10.37,2013-02-20 05:22:00,
2013-02-19 23:27:00,0.9,-3.3,29.20,NW,315,2.3,2.3,82,0.00,CLR,,0.00,WeatherDisplay:10.37,2013-02-20 05:27:00,
2013-02-19 23:33:00,0.7,-3.5,29.19,NW,315,2.3,2.3,82,0.00,CLR,,0.00,WeatherDisplay:10.37,2013-02-20 05:33:00,
2013-02-19 23:38:00,0.7,-3.5,29.19,NW,315,2.3,2.3,82,0.00,CLR,,0.00,WeatherDisplay:10.37,2013-02-20 05:38:00,
2013-02-19 23:43:00,0.5,-3.7,29.19,North,0,3.5,3.5,82,0.00,CLR,,0.00,WeatherDisplay:10.37,2013-02-20 05:43:00,
2013-02-19 23:48:00,0.5,-3.4,29.20,NW,315,2.3,2.3,83,0.00,CLR,,0.00,WeatherDisplay:10.37,2013-02-20 05:48:00,
2013-02-19 23:53:00,0.3,-3.6,29.20,North,0,2.3,2.3,83,0.00,CLR,,0.00,WeatherDisplay:10.37,2013-02-20 05:53:00,
2013-02-19 23:59:00,0.3,-3.6,29.21,NW,315,3.5,3.5,83,0.00,CLR,,0.00,WeatherDisplay:10.37,2013-02-20 05:59:00,